Dewpoint
54 54 53 54 53 54 54 54 54 54 54 54 54 55 55 55 55 56 57 57 57 57 58 58 60 61 53 36 36 65 78 76 63 55 46 48 43 42 38 36 35 35 43 50 52 53 52
54 53 53 54 53 53 53 53 54 54 54 54 54 54 54 55 55 56 56 57 57 57 58 59 60 62 42 36 46 61 63 63 56 53 45 47 45 45 38 35 33 34 45 50 52 52 51
54 53 53 52 54 54 55 54 54 54 54 54 54 54 54 54 55 55 55 56 56 57 58 59 60 55 31 32 51 59 60 56 53 52 42 46 47 41 38 31 33 33 37 47 48 51 50
54 54 53 54 54 54 54 54 54 54 53 53 54 54 54 54 54 55 55 55 55 57 59 60 60 46 32 38 50 55 48 44 46 50 45 46 45 41 35 32 30 28 31 32 44 50 50
55 55 55 55 54 53 53 53 53 54 54 54 55 55 55 54 54 54 54 54 56 58 59 59 49 37 29 41 34 35 41 38 41 43 45 45 39 35 31 27 26 25 26 28 30 46 47
55 55 55 55 54 55 54 54 56 56 56 55 55 54 54 54 53 53 53 54 56 56 55 48 41 33 27 27 27 29 36 36 32 34 36 38 35 33 28 23 22 23 21 22 21 32 43
55 55 55 55 55 54 55 55 55 55 55 54 54 54 54 53 53 52 51 46 41 35 34 13 14 20 21 27 28 23 32 32 32 34 34 35 33 30 25 20 18 20 20 20 18 32 35
55 55 55 54 54 55 55 55 54 55 54 54 54 54 54 53 52 53 51 40 39 37 24 30 32 31 27 28 24 20 26 27 34 33 33 33 30 25 23 17 13 18 22 20 17 16 28
56 55 55 55 55 54 54 54 54 54 54 54 54 53 53 53 53 51 41 40 39 38 31 27 25 21 23 27 24 21 21 22 31 32 29 30 25 24 19 13 12 17 17 14 13 13 19
56 57 57 56 55 55 55 55 54 54 54 54 53 53 53 52 48 39 39 42 37 38 20 16 14 19 25 24 15 18 19 23 25 27 27 25 22 23 17 16 14 18 8 8 8 10 10
57 57 57 55 56 55 56 55 55 55 54 53 53 52 52 52 41 37 39 36 39 38 9 11 17 30 23 15 15 18 21 24 20 23 25 17 17 20 18 18 13 18 11 11 11 11 5
57 56 56 56 56 55 55 55 55 54 54 54 52 52 51 48 43 38 38 38 38 29 20 13 18 21 18 15 14 16 20 22 23 21 19 17 17 16 16 11 11 11 12 14 12 6 9
55 55 55 56 56 56 55 56 56 55 54 53 52 50 49 46 33 38 35 36 21 21 25 21 14 18 14 13 14 14 15 15 12 12 14 12 14 13 12 13 13 12 7 14 12 10 10
56 55 55 55 56 55 55 56 56 55 54 52 51 50 49 45 41 39 39 30 20 21 24 21 13 15 12 13 15 13 14 12 16 12 8 11 10 12 13 13 13 12 6 10 14 11 9
57 56 56 55 54 56 55 56 55 54 53 52 50 46 41 40 41 40 36 25 12 27 25 18 16 16 13 13 14 13 15 12 11 12 13 14 14 13 12 10 13 12 15 9 6 9 7
57 56 56 55 56 56 56 56 55 54 53 51 46 38 39 45 42 34 32 27 18 30 28 19 16 15 12 15 14 14 16 14 12 12 13 16 19 12 15 16 15 14 13 10 16 17 17
57 57 56 56 56 56 56 57 56 54 53 52 46 32 45 40 39 37 28 24 23 29 30 23 19 16 14 14 14 15 14 14 12 12 15 12 14 20 23 19 18 21 20 18 13 15 14
57 57 57 57 56 56 57 57 56 54 52 49 42 31 41 39 31 32 29 27 31 23 23 25 25 17 16 14 16 15 16 15 15 14 14 15 9 18 19 24 25 24 21 18 19 23 23
58 57 57 57 57 57 56 56 55 53 52 49 43 41 38 37 23 25 26 24 22 20 21 25 25 24 19 17 20 17 17 25 19 16 19 17 14 20 19 22 25 22 23 21 18 17 20
57 58 57 57 57 57 56 56 55 54 53 50 46 33 32 34 33 25 23 21 18 21 22 25 29 27 27 24 30 24 19 29 22 23 51 34 13 18 17 21 21 25 24 24 19 16 18
58 58 58 58 57 57 57 56 56 54 53 50 45 41 34 25 27 27 26 28 21 20 27 32 33 28 26 28 30 28 28 30 32 43 32 19 19 22 22 22 20 21 22 22 23 21 21
58 58 58 58 57 57 57 57 56 55 53 51 45 44 41 37 25 28 31 30 27 22 30 28 31 26 29 29 29 31 30 30 30 34 30 24 27 28 25 24 24 23 23 22 21 22 24
58 58 58 58 58 58 57 57 57 55 53 47 48 47 45 40 35 25 28 32 31 30 27 30 29 30 29 30 33 32 30 29 31 32 30 28 29 30 27 28 26 25 26 25 25 26 25
58 58 58 57 58 58 58 57 57 56 54 51 49 48 44 37 40 37 36 36 35 35 32 30 34 35 36 35 31 29 28 29 30 29 30 33 32 30 26 32 27 26 29 28 26 27 27
56 56 56 57 57 58 57 57 58 56 55 52 51 48 44 37 39 38 36 37 37 39 37 34 32 35 35 33 30 32 30 32 31 31 28 28 30 29 28 27 27 26 28 29 29 29 30
55 56 56 56 56 56 56 56 56 56 55 53 52 51 46 41 36 37 36 37 35 32 34 33 36 32 31 32 30 35 29 31 32 32 30 28 34 31 32 28 27 29 30 38 35 31 32
53 54 55 55 55 55 55 56 56 57 55 54 51 49 48 39 39 39 38 37 39 38 35 36 34 32 32 32 29 29 28 34 31 32 34 33 34 30 29 29 27 28 34 39 30 28 41
51 52 53 54 54 54 55 55 55 56 56 54 49 50 47 43 39 41 41 39 37 39 35 42 36 33 32 33 30 31 30 33 33 34 35 35 33 28 30 30 28 39 40 33 41 46 46
51 51 52 53 54 54 54 55 55 56 56 56 51 52 49 45 39 45 41 41 40 39 38 39 39 39 37 34 36 35 32 35 34 29 36 29 30 28 30 32 46 48 46 48 45 47 48
Lifted_Index
14 15 15 16 16 17 17 17 18 18 17 17 17 17 17 17 17 17 17 17 17 16 16 15 14 11 8 6 4 2 -1 -1 1 2 3 2 1 1 1 2 2 1 -1 -3 -4 -4 -4
14 15 15 15 16 17 17 17 17 18 17 17 17 17 17 17 17 17 17 17 17 16 16 15 13 11 8 6 5 3 1 1 2 3 3 2 2 1 2 2 2 1 -1 -3 -4 -4 -4
14 14 15 15 15 16 16 17 17 17 17 17 17 17 17 17 17 16 17 17 17 16 15 14 13 10 8 7 6 4 3 3 4 4 4 3 3 2 3 3 3 1 -1 -2 -4 -4 -4
13 14 14 14 15 15 16 17 17 17 17 17 17 17 17 17 16 16 17 17 17 16 15 14 12 10 8 8 7 6 6 5 5 4 4 4 3 3 4 4 3 1 -0 -1 -2 -3 -4
13 13 14 14 14 15 16 16 17 17 17 17 17 17 17 16 16 16 16 16 16 15 14 13 12 10 8 8 8 8 7 6 5 4 4 4 4 4 4 3 2 1 0 -0 -1 -2 -3
13 13 13 14 14 15 15 15 16 16 16 17 17 17 16 16 16 16 15 15 14 13 12 12 11 10 9 8 9 9 8 7 5 4 4 4 4 4 4 4 2 2 1 0 0 -0 -1
13 13 13 14 14 15 15 15 15 16 16 17 17 17 16 16 15 15 14 12 11 11 11 11 10 10 9 9 9 9 9 7 5 5 5 5 4 4 5 4 4 3 2 1 2 2 1
13 13 13 14 14 14 15 15 15 15 16 16 17 16 16 15 14 13 11 10 10 10 10 10 10 10 10 9 8 9 9 7 6 6 5 5 5 5 5 5 4 3 3 2 3 3 3
13 13 13 13 14 14 14 14 15 15 15 16 16 16 16 15 13 11 10 10 10 10 9 9 10 10 10 9 9 9 9 8 7 6 6 6 6 6 6 5 4 3 3 3 4 4 3
12 12 12 13 13 13 13 14 14 14 15 15 16 16 15 14 12 10 10 10 10 9 7 7 9 10 10 9 9 9 9 8 8 7 7 6 6 6 5 5 3 3 3 4 4 3 3
11 11 12 12 12 12 13 13 13 14 14 15 15 15 15 13 11 10 10 10 10 7 5 6 8 9 9 9 9 9 9 9 8 8 7 6 6 6 5 5 4 4 4 4 4 3 2
10 10 11 11 11 12 12 12 13 13 14 14 14 15 15 13 11 10 9 9 8 6 4 5 8 8 9 9 8 9 9 8 8 7 6 6 6 6 5 5 4 4 3 3 3 2 1
10 10 10 10 11 11 11 12 12 12 13 13 14 14 14 13 11 10 9 8 6 5 5 6 7 8 8 8 8 8 8 7 7 5 5 5 5 5 5 4 4 4 2 1 1 0 -0
9 9 9 9 10 10 11 11 11 12 12 13 13 13 14 13 11 9 8 7 5 5 6 6 7 7 7 7 7 7 7 7 6 5 4 4 4 4 4 4 4 3 2 1 0 -0 -1
9 9 9 9 9 10 10 10 11 11 12 12 12 12 12 12 10 9 7 6 5 5 6 6 6 6 6 6 7 7 6 6 6 6 4 3 3 4 4 4 4 3 3 2 1 0 -0
9 9 8 9 9 9 10 10 10 11 11 11 11 10 10 10 10 8 7 6 6 6 6 6 5 5 5 6 6 6 6 6 6 6 5 4 4 4 4 4 3 3 3 2 2 1 0
8 8 8 8 8 9 9 9 10 10 10 10 9 8 9 10 9 7 6 7 7 6 6 6 5 5 5 5 5 5 5 6 6 5 5 4 3 3 3 3 3 3 3 3 2 2 1
8 7 7 7 8 8 8 9 9 9 9 9 7 7 8 9 8 7 6 7 7 6 6 6 5 5 5 5 5 5 5 5 5 5 4 4 2 2 3 3 4 4 3 3 3 2 2
7 7 6 6 7 7 8 8 8 9 8 7 6 6 8 8 7 7 7 7 7 6 6 6 5 5 5 5 5 5 5 5 5 4 4 3 2 2 2 3 3 4 4 4 3 3 2
6 6 6 6 6 6 7 7 8 8 7 6 5 5 7 8 7 7 7 6 6 6 6 6 5 5 5 4 4 4 4 4 4 4 4 3 2 2 2 2 3 4 4 4 4 3 3
5 5 5 5 5 6 6 6 7 7 6 5 3 4 5 7 7 7 7 6 6 6 6 5 5 4 4 4 4 4 4 4 4 4 4 3 3 2 3 3 3 4 4 4 4 4 3
4 4 5 5 5 5 5 6 6 6 5 3 2 2 4 5 6 6 6 6 5 6 5 5 4 4 3 3 3 3 3 3 3 3 4 3 3 3 3 4 4 4 4 4 4 4 4
4 4 4 5 5 5 5 5 6 6 4 3 2 2 2 3 4 5 5 5 5 5 5 5 4 4 3 3 3 3 3 3 3 3 4 4 3 3 3 4 4 4 4 4 5 5 5
4 4 5 5 5 5 5 5 5 5 5 4 3 2 2 2 2 3 4 4 4 4 5 5 4 4 3 3 3 3 3 3 4 4 4 4 3 3 3 3 3 4 4 5 5 4 4
4 5 5 5 5 4 4 4 5 5 5 5 4 3 1 1 1 2 3 3 4 4 4 4 4 4 3 3 2 2 3 3 3 4 4 4 3 3 3 3 3 4 4 5 4 4 4
4 5 6 6 5 4 4 4 4 5 5 5 4 4 2 1 1 2 3 3 3 3 4 4 4 4 3 2 2 2 2 2 3 3 4 4 3 3 3 3 3 4 5 4 4 4 4
6 6 7 7 6 5 4 4 4 4 4 5 4 4 3 2 1 2 2 3 3 3 3 3 3 3 3 2 1 1 2 2 3 3 3 3 3 4 4 4 4 4 5 4 4 3 3
9 9 8 8 7 5 4 4 4 4 4 4 4 5 4 3 2 3 3 3 3 3 2 2 3 3 2 2 2 2 2 2 3 3 3 3 4 4 4 4 4 4 4 4 3 2 2
10 10 9 9 7 6 4 4 4 4 4 4 4 4 5 4 3 3 4 4 4 3 3 2 2 2 2 2 2 2 3 3 3 3 4 4 4 4 5 4 4 3 3 3 3 2 2